Simultaneous Nadir Overpasses (SNOs) Predictions

Prediction of SNOs between AQUA and NOAA-19 Satellite Orbit:

Table of predicted SNOs for the next 14.0 days since TLE Epoch: 10/5/2018
Index Date (AQUA) Time (AQUA) Lat,Lon (AQUA) SZA (AQUA ) Date (NOAA-19) Time (NOAA-19) Lat,Lon (NOAA-19) SZA (NOAA-19 ) Distance(km) Time Diff (sec)
1 10/06/2018 16:04:29 80.70, -98.31 87.53 10/06/2018 16:03:43 80.69, -98.24 87.53 1.32 46
2 10/06/2018 16:53:55 -80.69, 69.38 92.48 10/06/2018 16:54:48 -80.70, 69.36 92.48 1.48 53
3 10/08/2018 21:38:13 -80.70, -1.83 91.63 10/08/2018 21:37:21 -80.69, -1.77 91.63 2.32 52
4 10/08/2018 22:27:40 80.71, 165.73 88.40 10/08/2018 22:28:15 80.70, 165.81 88.37 2.06 35
5 10/11/2018 03:11:56 80.67, 95.12 89.14 10/11/2018 03:10:47 80.69, 94.97 89.19 3.24 69
6 10/11/2018 04:01:23 -80.69, -97.43 90.82 10/11/2018 04:01:52 -80.70, -97.36 90.83 2.08 29
7 10/13/2018 08:45:42 -80.73,-169.02 89.93 10/13/2018 08:44:32 -80.58,-171.03 89.84 39.84 70
8 10/13/2018 09:35:07 80.69, -0.87 90.01 10/13/2018 09:35:19 80.69, -1.01 90.02 2.39 12
9 10/15/2018 15:08:51 -80.69, 95.67 89.18 10/15/2018 15:08:56 -80.69, 95.78 89.19 2.00 5




NCC Satellite Simultaneous Nadir Overpasses (SNOs) Prediction Service
